カタログに戻る

STARLINK-5009

運用中通信VLEO
NORAD 53928·PAYLOAD·🇺🇸 United States

打ち上げ Sep 24, 2022 から Cape Canaveral Space Force Station

Loading…

次のパス (今後24時間)

TLE

最新Source: CelesTrak SupGP

元期: Sep 14, 2026, 21:01 UTC

1 53928C 22119AU  26257.87618056 -.00040095  00000+0 -25154-2 0  2570
2 53928  53.1593 174.1012 0001320  95.4272  37.8136 15.08840097    17

AllMySatでSTARLINK-5009をリアルタイム追跡

Download on the App Store